Total_Precipitation_Accumulation
0.58 0.56 0.56 0.50 0.47 0.47 0.50 0.60 0.80 0.66 0.32 0.20 0.19 0.19 0.21 0.25 0.24 0.22 0.19 0.24 0.30 0.33 0.37 0.40 0.47 0.64 0.95 1.43 2.00 2.90 3.49 3.15 2.40 1.87 1.76 2.02 2.44 2.90
0.64 0.64 0.60 0.56 0.56 0.56 0.57 0.57 0.64 0.74 0.54 0.23 0.20 0.20 0.24 0.30 0.33 0.26 0.24 0.28 0.28 0.28 0.29 0.31 0.35 0.47 0.69 1.00 1.40 1.97 2.87 3.35 3.13 2.63 2.21 2.24 2.41 2.76
0.66 0.66 0.63 0.61 0.67 0.68 0.70 0.67 0.61 0.64 0.66 0.33 0.25 0.26 0.34 0.39 0.39 0.31 0.28 0.27 0.24 0.26 0.27 0.30 0.32 0.39 0.55 0.76 1.01 1.36 1.99 2.77 3.22 3.25 2.89 2.60 2.51 2.55
0.70 0.71 0.70 0.67 0.70 0.73 0.79 0.78 0.68 0.61 0.66 0.51 0.35 0.36 0.42 0.48 0.48 0.40 0.34 0.29 0.22 0.24 0.27 0.31 0.36 0.42 0.51 0.64 0.81 1.04 1.40 1.95 2.54 2.96 3.06 2.75 2.58 2.60
0.69 0.74 0.76 0.76 0.71 0.71 0.80 0.85 0.77 0.69 0.69 0.66 0.45 0.36 0.42 0.51 0.57 0.51 0.43 0.39 0.30 0.26 0.28 0.30 0.34 0.39 0.46 0.54 0.67 0.84 1.01 1.22 1.65 2.26 2.84 2.93 2.73 2.67
0.63 0.64 0.74 0.86 0.87 0.87 0.90 0.88 0.89 0.90 0.85 0.80 0.63 0.48 0.47 0.52 0.64 0.67 0.58 0.50 0.43 0.35 0.34 0.32 0.33 0.37 0.41 0.44 0.46 0.57 0.75 1.02 1.33 1.79 2.29 2.71 2.78 2.72
0.62 0.58 0.68 0.90 1.07 1.23 1.26 1.14 1.14 1.22 1.16 1.08 0.94 0.76 0.63 0.64 0.71 0.70 0.74 0.64 0.58 0.48 0.40 0.35 0.33 0.31 0.29 0.34 0.38 0.42 0.54 0.74 1.00 1.34 1.77 2.17 2.50 2.68
0.69 0.60 0.66 0.88 1.00 1.10 1.22 1.20 1.23 1.39 1.46 1.37 1.21 0.99 0.73 0.62 0.66 0.77 0.92 0.98 0.85 0.63 0.51 0.44 0.40 0.37 0.30 0.26 0.31 0.37 0.46 0.62 0.82 1.07 1.38 1.72 2.08 2.43
0.69 0.64 0.65 0.75 0.86 0.89 0.94 0.95 0.99 1.14 1.35 1.45 1.39 1.06 0.85 0.72 0.84 0.97 0.98 1.07 0.95 0.86 0.83 0.74 0.51 0.43 0.34 0.33 0.38 0.38 0.45 0.55 0.67 0.85 1.12 1.39 1.70 2.06
0.71 0.65 0.59 0.64 0.74 0.88 0.94 0.88 0.82 0.89 1.12 1.32 1.48 1.28 1.08 1.06 1.23 1.39 1.40 1.36 1.15 1.06 1.03 1.10 0.78 0.56 0.45 0.41 0.42 0.39 0.41 0.48 0.57 0.68 0.89 1.11 1.35 1.68
0.72 0.66 0.58 0.56 0.72 0.86 0.83 0.77 0.71 0.76 0.88 1.07 1.20 1.22 1.21 1.33 1.56 1.86 1.93 1.83 1.55 1.27 1.13 1.15 1.09 0.95 0.83 0.68 0.57 0.49 0.43 0.44 0.50 0.60 0.73 0.90 1.12 1.48
0.72 0.68 0.71 0.70 0.78 0.80 0.73 0.73 0.81 0.74 0.69 0.72 0.75 0.78 0.82 0.93 1.27 1.66 1.89 1.92 1.70 1.59 1.37 1.21 1.26 1.29 1.45 1.16 0.84 0.61 0.48 0.48 0.49 0.54 0.61 0.70 0.90 1.10
0.75 0.73 0.67 0.78 0.79 0.75 0.73 0.72 0.86 0.79 0.69 0.74 0.74 0.68 0.66 0.73 0.89 1.19 1.59 1.89 1.89 1.69 1.48 1.49 1.61 1.36 1.41 1.38 1.10 0.81 0.56 0.48 0.48 0.54 0.60 0.64 0.73 0.83
0.71 0.64 0.61 0.73 0.75 0.77 0.74 0.76 0.80 0.77 0.70 0.69 0.65 0.61 0.62 0.70 0.81 0.96 1.20 1.49 1.65 1.58 1.41 1.53 1.85 1.56 1.31 1.18 1.08 0.99 0.74 0.61 0.51 0.50 0.52 0.68 0.78 0.81
0.79 0.81 0.74 0.79 0.79 0.70 0.67 0.70 0.68 0.62 0.67 0.68 0.60 0.54 0.56 0.66 0.72 0.79 0.89 1.09 1.29 1.33 1.34 1.43 1.67 1.67 1.49 1.24 0.94 0.87 0.86 0.84 0.68 0.59 0.56 0.58 0.60 0.64
0.93 0.90 0.86 0.84 0.78 0.70 0.65 0.58 0.52 0.53 0.61 0.63 0.58 0.51 0.49 0.54 0.63 0.74 0.84 0.94 1.14 1.22 1.28 1.43 1.66 1.87 1.75 1.24 0.98 0.84 0.73 0.90 0.87 0.72 0.65 0.62 0.57 0.51
1.00 1.00 0.90 0.84 0.82 0.75 0.62 0.51 0.47 0.49 0.53 0.50 0.53 0.54 0.53 0.54 0.56 0.64 0.83 0.94 1.08 1.14 1.24 1.49 1.75 1.86 1.88 1.63 1.32 0.96 0.72 0.72 0.80 0.77 0.73 0.74 0.73 0.62
1.00 0.98 0.81 0.66 0.63 0.60 0.55 0.50 0.45 0.42 0.41 0.45 0.50 0.53 0.54 0.57 0.59 0.60 0.74 0.92 1.03 1.08 1.14 1.32 1.67 1.91 2.02 1.99 1.58 1.13 0.85 0.78 0.88 0.88 0.79 0.77 0.84 0.78
0.83 0.72 0.63 0.55 0.50 0.47 0.46 0.44 0.43 0.38 0.39 0.44 0.47 0.48 0.50 0.54 0.59 0.61 0.67 0.80 0.91 1.01 1.11 1.22 1.47 1.78 1.92 1.99 1.93 1.43 1.05 0.91 1.00 1.14 1.01 0.80 0.74 0.78
0.62 0.59 0.56 0.52 0.51 0.51 0.48 0.47 0.45 0.43 0.44 0.43 0.42 0.42 0.46 0.52 0.57 0.57 0.62 0.75 0.84 0.92 1.03 1.13 1.34 1.60 1.76 1.68 1.70 1.66 1.47 1.16 1.04 1.20 1.20 1.02 0.89 0.96
0.55 0.53 0.52 0.53 0.54 0.54 0.50 0.48 0.47 0.43 0.40 0.40 0.39 0.37 0.39 0.46 0.51 0.50 0.56 0.65 0.74 0.83 0.91 0.99 1.17 1.36 1.56 1.59 1.47 1.41 1.58 1.59 1.24 1.15 1.21 1.23 1.16 1.15
0.52 0.53 0.53 0.54 0.56 0.57 0.55 0.51 0.49 0.45 0.40 0.39 0.38 0.36 0.35 0.40 0.45 0.46 0.52 0.59 0.64 0.72 0.82 0.92 1.03 1.22 1.47 1.62 1.52 1.35 1.45 1.66 1.65 1.42 1.27 1.19 1.17 1.12
0.56 0.58 0.56 0.55 0.56 0.56 0.56 0.53 0.49 0.44 0.40 0.39 0.37 0.36 0.35 0.37 0.38 0.43 0.49 0.54 0.60 0.65 0.74 0.89 1.01 1.15 1.37 1.53 1.54 1.40 1.34 1.45 1.50 1.46 1.55 1.35 0.98 0.73